{"data":{"norad_id":64452,"intl_designator":"2025-130Q","name":"STARLINK-34367","alt_names":[],"object_type":"PAYLOAD","status":"ACTIVE","operator":null,"country":"US","launch_date":"2025-06-18","launch_site_code":"AFETR","launch_vehicle":null,"mission":null,"orbit_class":"UNKNOWN","rcs_meters":null,"size_class":null,"mass_kg":null,"dimensions":null,"purposes":["comms"],"wikipedia_slug":null,"has_3d_model":false,"image_url":null,"decayed_at":null,"tle_current":{"epoch":"2026-09-20T23:12:40.187520Z","epoch_age_seconds":91281,"freshness":"FRESH","line1":"1 64452U 25130Q   26263.96713180  .00003102  00000+0  10290-3 0  9996","line2":"2 64452  53.1570 259.1744 0001429  88.2656 271.8510 15.34404485 70624","mean_motion":15.34404485,"eccentricity":0.0001429,"inclination_deg":53.157,"raan_deg":259.1744,"arg_perigee_deg":88.2656,"mean_anomaly_deg":271.851,"bstar":0.0001029,"rev_number":7062,"period_min":93.847483768271,"perigee_km":461.71235570898,"apogee_km":463.66746403983,"semimajor_km":6840.8269098744,"source":"CELESTRAK","updated_at":"2026-09-21T09:00:35.355001Z"}}}